Tehachapi, CA

9:59 PM PDT on August 29, 2016 (GMT -0700)
Tehachapi Municipal

Weather History for KTSP - May, 2013

Change the Weather History Date:

Sunday, May 5, 2013

  Actual Average Record
Temperature  
Mean Temperature 55 °F -  
Max Temperature 69 °F 65 °F 69 °F (2013)
Min Temperature 41 °F 42 °F 37 °F (2012)
Degree Days  
Heating Degree Days 10    
Growing Degree Days 5 (Base 50)    
Moisture  
Dew Point 31 °F    
Average Humidity 44    
Maximum Humidity 66    
Minimum Humidity 18    
Precipitation  
Precipitation 0.00 in - - ()
Sea Level Pressure  
Sea Level Pressure 29.81 in    
Wind  
Wind Speed 7 mph (ESE)    
Max Wind Speed 28 mph    
Max Gust Speed 34 mph    
Visibility 10 miles    
Events      
Averages and records for this station are not official NWS values.
T = Trace of Precipitation, MM = Missing Value Source: NWS Daily Summary

Daily Weather History Graph

Daily Weather History Graph

Search for Another Location

Airport or City:

Trip Planner

Search our weather history database for the weather conditions in past years. The results will help you decide how hot, cold, wet, or windy it might be!

Date:

Astronomy

May. 05, 2013 Rise Set
Actual Time 5:58 AM PDT 7:43 PM PDT
Civil Twilight 5:30 AM PDT 8:10 PM PDT
Nautical Twilight 4:57 AM PDT 8:43 PM PDT
Astronomical Twilight 4:22 AM PDT 9:18 PM PDT
Moon 3:21 AM PDT (5/5) 3:55 PM PDT (5/5)
Length of Visible Light 14h 39m
Length of Day
13h 44m
Waning Crescent, 17% of the Moon is Illuminated
May 5
Waning Crescent
May 9
New
May 17
First Quarter
May 24
Full
May 31
Last Quarter

Hourly Weather History & Observations

Time (PDT) Temp. Windchill Dew Point Humidity Pressure Visibility Wind Dir Wind Speed Gust Speed Precip Events Conditions
12:15 AM 50.0 °F - 33.8 °F 54% 29.78 in 10.0 mi ESE 6.9 mph - N/A   Clear
12:35 AM - - - N/A% - - North - - N/A   Unknown
12:55 AM - - - N/A% - - North - - N/A   Unknown
1:15 AM - - - N/A% - - North - - N/A   Unknown
1:35 AM 50.0 °F - 30.2 °F 47% 29.77 in 10.0 mi SW 3.5 mph - N/A   Unknown
1:55 AM 50.0 °F - 32.0 °F 50% 29.77 in 10.0 mi Calm Calm - N/A   Clear
2:15 AM 48.2 °F - 30.2 °F 50% 29.76 in 10.0 mi Calm Calm - N/A   Clear
2:35 AM - - - N/A% - 10.0 mi North - - N/A   Unknown
2:55 AM - - - N/A% - - North - - N/A   Unknown
3:15 AM - - - N/A% - - North - - N/A   Unknown
3:55 AM 42.8 °F - 28.4 °F 57% 29.75 in 10.0 mi Calm Calm - N/A   Unknown
4:15 AM 44.6 °F 42.2 °F 26.6 °F 49% 29.74 in 10.0 mi East 4.6 mph - N/A   Clear
4:35 AM 41.0 °F - 26.6 °F 57% 29.74 in 10.0 mi Calm Calm - N/A   Clear
4:55 AM 41.0 °F 37.1 °F 24.8 °F 53% 29.74 in 10.0 mi SSE 5.8 mph - N/A   Clear
5:15 AM 42.8 °F 41.1 °F 24.8 °F 49% 29.74 in 10.0 mi East 3.5 mph - N/A   Clear
5:35 AM 41.0 °F - 24.8 °F 53% 29.74 in 10.0 mi Calm Calm - N/A   Clear
5:55 AM 42.8 °F 41.1 °F 19.4 °F 39% 29.75 in 10.0 mi ENE 3.5 mph - N/A   Clear
6:15 AM 41.0 °F 36.4 °F 23.0 °F 49% 29.76 in 10.0 mi South 6.9 mph - N/A   Unknown
6:35 AM 48.2 °F - 19.4 °F 32% 29.76 in 10.0 mi SE 6.9 mph - N/A   Clear
6:55 AM 46.4 °F - 21.2 °F 37% 29.77 in 10.0 mi Calm Calm - N/A   Clear
7:15 AM 48.2 °F - 23.0 °F 37% 29.78 in 10.0 mi Calm Calm - N/A   Clear
7:35 AM 51.8 °F - 23.0 °F 33% 29.77 in 10.0 mi Calm Calm - N/A   Clear
7:55 AM 53.6 °F - 23.0 °F 30% 29.78 in 10.0 mi NE 3.5 mph - N/A   Clear
8:15 AM 55.4 °F - 19.4 °F 25% 29.79 in 10.0 mi SSE 4.6 mph - N/A   Clear
8:35 AM - - - N/A% - - North - - N/A   Unknown
8:55 AM - - - N/A% - - North - - N/A   Unknown
9:15 AM 57.2 °F - 28.4 °F 33% 29.80 in 10.0 mi ESE 6.9 mph - N/A   Unknown
9:35 AM 57.2 °F - 32.0 °F 38% 29.81 in 10.0 mi East 13.8 mph 19.6 mph N/A   Clear
9:55 AM 57.2 °F - 32.0 °F 38% 29.81 in 10.0 mi East 10.4 mph 17.3 mph N/A   Clear
10:15 AM 59.0 °F - 28.4 °F 31% 29.81 in 10.0 mi ENE 5.8 mph - N/A   Clear
10:35 AM - - - N/A% - - North - - N/A   Unknown
10:55 AM - - - N/A% - - North - - N/A   Unknown
11:15 AM - - - N/A% - - North - - N/A   Unknown
11:35 AM 66.2 °F - 26.6 °F 23% 29.82 in 10.0 mi NNE 6.9 mph - N/A   Unknown
11:55 AM 69.8 °F - 24.8 °F 18% 29.82 in 10.0 mi West 20.7 mph 26.5 mph N/A   Clear
12:15 PM 64.4 °F - 24.8 °F 22% 29.82 in 10.0 mi West 15.0 mph 26.5 mph N/A   Scattered Clouds
12:35 PM 64.4 °F - 32.0 °F 30% 29.83 in 9.0 mi ESE 17.3 mph 23.0 mph N/A   Partly Cloudy
12:55 PM 59.0 °F - 35.6 °F 42% 29.83 in 9.0 mi East 19.6 mph 28.8 mph N/A   Clear
1:15 PM 57.2 °F - 37.4 °F 48% 29.83 in 8.0 mi East 19.6 mph 32.2 mph N/A   Partly Cloudy
1:35 PM 59.0 °F - 33.8 °F 39% 29.84 in 8.0 mi East 11.5 mph 20.7 mph N/A   Partly Cloudy
1:55 PM 59.0 °F - 33.8 °F 39% 29.84 in 10.0 mi SE 13.8 mph 25.3 mph N/A   Mostly Cloudy
2:15 PM 59.0 °F - 35.6 °F 42% 29.84 in 9.0 mi SE 23.0 mph 33.4 mph N/A   Mostly Cloudy
2:35 PM 59.0 °F - 32.0 °F 36% 29.83 in 9.0 mi SE 17.3 mph 32.2 mph N/A   Partly Cloudy
2:55 PM 57.2 °F - 37.4 °F 48% 29.83 in 8.0 mi SE 27.6 mph 33.4 mph N/A   Clear
3:15 PM 57.2 °F - 35.6 °F 44% 29.83 in 9.0 mi SE 17.3 mph 32.2 mph N/A   Clear
3:35 PM 57.2 °F - 35.6 °F 44% 29.83 in 10.0 mi SE 18.4 mph 26.5 mph N/A   Unknown
3:55 PM 60.8 °F - 32.0 °F 34% 29.83 in 10.0 mi West 5.8 mph 24.2 mph N/A   Clear
4:15 PM 59.0 °F - 33.8 °F 39% 29.83 in 10.0 mi SE 10.4 mph 26.5 mph N/A   Clear
4:35 PM 57.2 °F - 37.4 °F 48% 29.82 in 9.0 mi ESE 23.0 mph 32.2 mph N/A   Clear
4:55 PM 57.2 °F - 37.4 °F 48% 29.82 in 9.0 mi SE 27.6 mph 34.5 mph N/A   Clear
5:15 PM 57.2 °F - 37.4 °F 48% 29.82 in 9.0 mi SSE 16.1 mph 33.4 mph N/A   Clear
5:35 PM 57.2 °F - 33.8 °F 41% 29.83 in 10.0 mi SSE 15.0 mph 23.0 mph N/A   Clear
5:55 PM 53.6 °F - 37.4 °F 54% 29.83 in 9.0 mi SE 21.9 mph 26.5 mph N/A   Clear
6:15 PM 53.6 °F - 35.6 °F 51% - 9.0 mi North - - N/A   Unknown
6:35 PM 57.2 °F - 32.0 °F 38% 29.83 in 10.0 mi West 6.9 mph - N/A   Unknown
6:55 PM 55.4 °F - 33.8 °F 44% 29.83 in 10.0 mi Calm Calm - N/A   Unknown
7:15 PM - - - N/A% 29.84 in 10.0 mi SE 8.1 mph - N/A   Unknown
7:35 PM - - - N/A% - - North - - N/A   Unknown
7:55 PM 48.2 °F - 33.8 °F 58% 29.85 in 9.0 mi East 11.5 mph 20.7 mph N/A   Unknown
8:15 PM - - - N/A% - - North - - N/A   Unknown
8:35 PM - - - N/A% - - North - - N/A   Unknown
8:55 PM 48.2 °F - 32.0 °F 54% 29.86 in 10.0 mi NE 10.4 mph - N/A   Unknown
9:15 PM 46.4 °F - 35.6 °F 66% 29.86 in 10.0 mi Calm Calm - N/A   Clear
9:35 PM 44.6 °F 41.4 °F 32.0 °F 61% 29.87 in 10.0 mi ESE 5.8 mph - N/A   Clear
9:55 PM - - - N/A% - - North - - N/A   Unknown
10:15 PM - - - N/A% - - North - - N/A   Unknown
10:35 PM - - - N/A% - - North - - N/A   Unknown
10:55 PM 44.6 °F 40.2 °F 32.0 °F 61% 29.88 in 10.0 mi NE 8.1 mph - N/A   Unknown
11:15 PM 46.4 °F 43.5 °F 35.6 °F 66% 29.88 in 10.0 mi ESE 5.8 mph - N/A   Clear
11:35 PM 46.4 °F 42.4 °F 33.8 °F 62% 29.89 in 10.0 mi East 8.1 mph - N/A   Clear
11:55 PM 46.4 °F 42.4 °F 35.6 °F 66% 29.89 in 10.0 mi ENE 8.1 mph - N/A   Clear